Location: Krakow
(50.0830°N, 19.9170°E)
Time: 20:56:15
(UTC+01:00)

Altair - Pass Details

Date: 09 December 2023
Orbit: 1501 x 1682 km, 47.2° (Epoch: 03 March)

Event Time Altitude Azimuth Distance (km) Brightness Sun altitude
Rises 06:26:39 0° 217° (SW) 4,863 10.0 -9.1°
Reaches altitude 10° 06:30:02 10° 210° (SSW) 3,855 9.6 -8.6°
Maximum altitude 06:38:56 41° 145° (SE) 2,158 8.9 -7.3°
Drops below altitude 10° 06:47:33 10° 79° (E) 3,735 10.4 -6.1°
Sets 06:50:46 0° 73° (ENE) 4,698 10.8 -5.7°
